TimeEST,TemperatureF,Dew PointF,Humidity,Sea Level PressureIn,VisibilityMPH,Wind Direction,Wind SpeedMPH,Gust SpeedMPH,PrecipitationIn,Events,Conditions,WindDirDegrees,DateUTC
12:53 AM,33.1,30.0,89,30.20,10.0,Calm,Calm,-,N/A,,Clear,0,2012-11-20 05:53:00
1:53 AM,32.0,28.9,88,30.19,10.0,Calm,Calm,-,N/A,,Clear,0,2012-11-20 06:53:00
3:53 AM,32.0,30.0,92,30.19,9.0,Calm,Calm,-,N/A,,Clear,0,2012-11-20 08:53:00
4:53 AM,33.1,30.0,89,30.18,9.0,WNW,3.5,-,N/A,,Clear,290,2012-11-20 09:53:00
5:53 AM,32.0,30.0,92,30.19,9.0,Calm,Calm,-,N/A,,Clear,0,2012-11-20 10:53:00
7:53 AM,32.0,30.0,92,30.20,7.0,Calm,Calm,-,N/A,,Clear,0,2012-11-20 12:53:00
8:53 AM,37.9,34.0,86,30.20,7.0,Calm,Calm,-,N/A,,Mostly Cloudy,0,2012-11-20 13:53:00
9:53 AM,48.0,35.1,61,30.18,9.0,Calm,Calm,-,N/A,,Clear,0,2012-11-20 14:53:00
10:53 AM,51.1,34.0,52,30.16,10.0,SSE,4.6,-,N/A,,Overcast,160,2012-11-20 15:53:00
11:53 AM,54.0,35.1,49,30.16,10.0,Calm,Calm,-,N/A,,Mostly Cloudy,0,2012-11-20 16:53:00
12:53 PM,54.0,33.1,45,30.13,10.0,ESE,4.6,-,N/A,,Overcast,110,2012-11-20 17:53:00
1:53 PM,55.0,36.0,49,30.12,10.0,Calm,Calm,-,N/A,,Overcast,0,2012-11-20 18:53:00
2:53 PM,55.0,37.9,53,30.11,10.0,North,3.5,-,N/A,,Mostly Cloudy,350,2012-11-20 19:53:00
3:53 PM,53.1,37.9,57,30.11,10.0,NNW,4.6,-,N/A,,Overcast,330,2012-11-20 20:53:00
4:53 PM,51.1,39.0,63,30.11,10.0,Calm,Calm,-,N/A,,Overcast,0,2012-11-20 21:53:00
5:53 PM,48.0,39.0,71,30.13,10.0,Calm,Calm,-,N/A,,Overcast,0,2012-11-20 22:53:00
6:53 PM,45.0,37.9,76,30.14,10.0,Calm,Calm,-,N/A,,Overcast,0,2012-11-20 23:53:00
7:53 PM,45.0,37.9,76,30.16,10.0,Calm,Calm,-,N/A,,Overcast,0,2012-11-21 00:53:00
8:53 PM,44.1,39.0,82,30.16,10.0,Calm,Calm,-,N/A,,Overcast,0,2012-11-21 01:53:00
9:53 PM,41.0,37.0,86,30.16,10.0,Calm,Calm,-,N/A,,Overcast,0,2012-11-21 02:53:00
10:53 PM,37.9,35.1,89,30.15,10.0,Calm,Calm,-,N/A,,Scattered Clouds,0,2012-11-21 03:53:00
11:53 PM,37.0,35.1,93,30.15,8.0,WSW,3.5,-,N/A,,Overcast,240,2012-11-21 04:53:00